Powrót do katalogu

STARLINK-30611

AktywnyŁącznośćVLEO
NORAD 58108·PAYLOAD·🇺🇸 United States

Wystrzelony Oct 21, 2023 z Vandenberg Space Force Base

Loading…

Następne Przeloty (najbliższe 24 godziny)

TLE

ŚwieżeSource: CelesTrak SupGP

Epoka: Sep 14, 2026, 21:24 UTC

1 58108C 23161M   26257.89215278 -.00007521  00000+0 -22225-3 0  2578
2 58108  53.1588 349.7580 0001165  87.5857 328.0460 15.34389045    19

Śledź STARLINK-30611 w czasie rzeczywistym z AllMySat

Download on the App Store